When you browse on this site, cookies collect data to enhance your experience and personalize the content and advertising you see.
Visit our Privacy Policy to learn more. By continuing to use the site, you agree to this use of cookies and data.
  • în România
  • Lista ţărilor
  • Pe 7 zile
  • Temperatura apei
  • Hartă satelitară
  • Meteo pe hartă
  • Widget-uri
  • user-avatar
    Intrare

    Meteo pe oră la Saint-Quentin

    Astăzi, 16 Iunie, Duminică

    Timp Temperatura Precipitaţii Vânt Presiune Umiditate
    00:00 +12°C° 0 mm 3 m/s 755 mmHg 94%
    01:00 +11°C° 0 mm 3 m/s 755 mmHg 95%
    02:00 +11°C° 0 mm 3 m/s 755 mmHg 96%
    03:00 +11°C° 0 mm 3 m/s 755 mmHg 97%
    04:00 +11°C° 0 mm 3 m/s 755 mmHg 95%
    05:00 +12°C° 0 mm 4 m/s 756 mmHg 94%
    06:00 +13°C° 0 mm 4 m/s 756 mmHg 92%
    07:00 +13°C° 0 mm 4 m/s 756 mmHg 89%
    08:00 +14°C° 0 mm 4 m/s 756 mmHg 87%
    09:00 +15°C° 0 mm 4 m/s 756 mmHg 84%
    10:00 +17°C° 0 mm 4 m/s 756 mmHg 81%
    11:00 +18°C° 0 mm 4 m/s 756 mmHg 78%
    12:00 +19°C° 0 mm 4 m/s 757 mmHg 75%
    13:00 +20°C° 0.1 mm 4 m/s 756 mmHg 74%
    14:00 +20°C° 0.1 mm 4 m/s 756 mmHg 72%
    15:00 +21°C° 0.1 mm 4 m/s 756 mmHg 71%
    16:00 +21°C° 0.1 mm 3 m/s 756 mmHg 74%
    17:00 +20°C° 0.1 mm 2 m/s 756 mmHg 76%
    18:00 +21°C° 0.1 mm 1 m/s 756 mmHg 79%
    19:00 +20°C° 0 mm 1 m/s 756 mmHg 83%
    20:00 +18°C° 0 mm 1 m/s 756 mmHg 86%
    21:00 +16°C° 0 mm 1 m/s 756 mmHg 89%
    22:00 +15°C° 0 mm 1 m/s 756 mmHg 90%
    23:00 +15°C° 0 mm 1 m/s 756 mmHg 92%

    Mâine, 17 Iunie, Luni

    Timp Temperatura Precipitaţii Vânt Presiune Umiditate
    00:00 +14°C° 0 mm 2 m/s 756 mmHg 93%
    01:00 +14°C° 0 mm 2 m/s 756 mmHg 93%
    02:00 +14°C° 0 mm 2 m/s 756 mmHg 94%
    03:00 +13°C° 0 mm 2 m/s 756 mmHg 94%
    04:00 +14°C° 0 mm 2 m/s 756 mmHg 93%
    05:00 +15°C° 0 mm 2 m/s 756 mmHg 92%
    06:00 +16°C° 0 mm 1 m/s 756 mmHg 91%
    07:00 +17°C° 0 mm 2 m/s 756 mmHg 86%
    08:00 +19°C° 0 mm 2 m/s 756 mmHg 81%
    09:00 +20°C° 0 mm 2 m/s 756 mmHg 76%
    10:00 +21°C° 0 mm 2 m/s 756 mmHg 72%
    11:00 +23°C° 0 mm 2 m/s 756 mmHg 67%
    12:00 +24°C° 0 mm 1 m/s 756 mmHg 63%
    13:00 +24°C° 0 mm 1 m/s 755 mmHg 62%
    14:00 +24°C° 0 mm 1 m/s 755 mmHg 61%
    15:00 +24°C° 0 mm 1 m/s 754 mmHg 60%
    16:00 +24°C° 0 mm 1 m/s 754 mmHg 65%
    17:00 +24°C° 0 mm 1 m/s 754 mmHg 69%
    18:00 +24°C° 0 mm 1 m/s 754 mmHg 74%
    19:00 +22°C° 0 mm 1 m/s 754 mmHg 77%
    20:00 +20°C° 0 mm 1 m/s 754 mmHg 81%
    21:00 +17°C° 0 mm 2 m/s 754 mmHg 84%
    22:00 +16°C° 0 mm 2 m/s 754 mmHg 88%
    23:00 +15°C° 0 mm 2 m/s 754 mmHg 91%

    Poimâine, 18 Iunie, Marţi

    Timp Temperatura Precipitaţii Vânt Presiune Umiditate
    00:00 +15°C° 0 mm 2 m/s 754 mmHg 94%
    01:00 +13°C° 0 mm 3 m/s 754 mmHg 95%
    02:00 +13°C° 0 mm 3 m/s 753 mmHg 95%
    03:00 +12°C° 0 mm 3 m/s 753 mmHg 96%
    04:00 +13°C° 0 mm 3 m/s 753 mmHg 94%
    05:00 +14°C° 0 mm 3 m/s 753 mmHg 92%
    06:00 +16°C° 0 mm 3 m/s 753 mmHg 90%
    07:00 +18°C° 0 mm 3 m/s 753 mmHg 86%
    08:00 +20°C° 0 mm 3 m/s 753 mmHg 82%
    09:00 +21°C° 0 mm 3 m/s 753 mmHg 78%
    10:00 +22°C° 0 mm 3 m/s 753 mmHg 75%
    11:00 +24°C° 0 mm 3 m/s 752 mmHg 72%
    12:00 +25°C° 0 mm 3 m/s 752 mmHg 68%
    13:00 +25°C° 0 mm 3 m/s 752 mmHg 67%
    14:00 +26°C° 0 mm 3 m/s 752 mmHg 66%
    15:00 +26°C° 0 mm 3 m/s 751 mmHg 65%
    16:00 +26°C° 0 mm 2 m/s 751 mmHg 70%
    17:00 +25°C° 0 mm 2 m/s 751 mmHg 74%
    18:00 +25°C° 0 mm 2 m/s 751 mmHg 78%
    19:00 +23°C° 0.3 mm 2 m/s 751 mmHg 82%
    20:00 +20°C° 0.3 mm 2 m/s 751 mmHg 86%
    21:00 +19°C° 0.3 mm 2 m/s 751 mmHg 91%
    22:00 +19°C° 0.2 mm 2 m/s 750 mmHg 91%
    23:00 +18°C° 0.2 mm 3 m/s 750 mmHg 92%

    19 Iunie, Miercuri

    Timp Temperatura Precipitaţii Vânt Presiune Umiditate
    00:00 +18°C° 0.2 mm 3 m/s 750 mmHg 92%
    01:00 +18°C° 0 mm 3 m/s 749 mmHg 92%
    02:00 +17°C° 0 mm 3 m/s 749 mmHg 92%
    03:00 +17°C° 0 mm 2 m/s 749 mmHg 92%
    04:00 +18°C° 0 mm 3 m/s 749 mmHg 91%
    05:00 +19°C° 0 mm 3 m/s 748 mmHg 90%
    06:00 +19°C° 0 mm 3 m/s 748 mmHg 89%
    07:00 +21°C° 0 mm 4 m/s 748 mmHg 86%
    08:00 +22°C° 0 mm 4 m/s 748 mmHg 82%
    09:00 +25°C° 0 mm 4 m/s 748 mmHg 79%
    10:00 +26°C° 0.1 mm 4 m/s 748 mmHg 76%
    11:00 +27°C° 0.1 mm 3 m/s 748 mmHg 73%
    12:00 +28°C° 0.1 mm 3 m/s 747 mmHg 70%
    13:00 +28°C° 0.5 mm 3 m/s 747 mmHg 69%
    14:00 +28°C° 0.5 mm 3 m/s 747 mmHg 69%
    15:00 +28°C° 0.5 mm 3 m/s 746 mmHg 68%
    16:00 +27°C° 2.1 mm 3 m/s 746 mmHg 73%
    17:00 +25°C° 2.1 mm 3 m/s 746 mmHg 78%
    18:00 +24°C° 2.1 mm 3 m/s 746 mmHg 84%
    19:00 +21°C° 0.4 mm 3 m/s 747 mmHg 86%
    20:00 +20°C° 0.4 mm 4 m/s 747 mmHg 89%
    21:00 +19°C° 0.4 mm 5 m/s 748 mmHg 91%
    22:00 +18°C° 0 mm 4 m/s 748 mmHg 93%
    23:00 +17°C° 0 mm 4 m/s 748 mmHg 95%

    20 Iunie, Joi

    Timp Temperatura Precipitaţii Vânt Presiune Umiditate
    00:00 +17°C° 0 mm 4 m/s 748 mmHg 96%
    01:00 +15°C° 0 mm 4 m/s 748 mmHg 96%
    02:00 +15°C° 0 mm 4 m/s 748 mmHg 97%
    03:00 +14°C° 0 mm 4 m/s 749 mmHg 97%
    04:00 +15°C° 0 mm 4 m/s 749 mmHg 95%
    05:00 +16°C° 0 mm 3 m/s 749 mmHg 94%
    06:00 +16°C° 0 mm 3 m/s 750 mmHg 93%
    07:00 +17°C° 0.2 mm 3 m/s 750 mmHg 90%
    08:00 +17°C° 0.2 mm 3 m/s 750 mmHg 87%
    09:00 +18°C° 0.2 mm 3 m/s 751 mmHg 85%
    10:00 +19°C° 0.4 mm 3 m/s 751 mmHg 82%
    11:00 +20°C° 0.4 mm 3 m/s 751 mmHg 80%
    12:00 +20°C° 0.4 mm 3 m/s 751 mmHg 77%
    13:00 +20°C° 0.4 mm 3 m/s 751 mmHg 78%
    14:00 +20°C° 0.4 mm 3 m/s 751 mmHg 78%
    15:00 +20°C° 0.4 mm 3 m/s 751 mmHg 79%
    16:00 +19°C° 0 mm 3 m/s 751 mmHg 79%
    17:00 +19°C° 0 mm 3 m/s 751 mmHg 79%
    18:00 +19°C° 0 mm 2 m/s 751 mmHg 79%
    19:00 +17°C° 0 mm 2 m/s 751 mmHg 82%
    20:00 +16°C° 0 mm 2 m/s 751 mmHg 84%
    21:00 +14°C° 0 mm 2 m/s 752 mmHg 86%
    22:00 +13°C° 0 mm 2 m/s 752 mmHg 87%
    23:00 +13°C° 0 mm 2 m/s 752 mmHg 89%

    21 Iunie, Vineri

    Timp Temperatura Precipitaţii Vânt Presiune Umiditate
    00:00 +12°C° 0 mm 2 m/s 752 mmHg 91%
    01:00 +12°C° 0 mm 2 m/s 752 mmHg 89%
    02:00 +12°C° 0 mm 2 m/s 752 mmHg 86%
    03:00 +12°C° 0 mm 2 m/s 752 mmHg 84%
    04:00 +12°C° 0 mm 2 m/s 752 mmHg 85%
    05:00 +13°C° 0 mm 2 m/s 752 mmHg 85%
    06:00 +13°C° 0 mm 2 m/s 753 mmHg 86%
    07:00 +14°C° 0 mm 2 m/s 753 mmHg 81%
    08:00 +16°C° 0 mm 2 m/s 753 mmHg 76%
    09:00 +17°C° 0 mm 2 m/s 753 mmHg 71%
    10:00 +18°C° 0 mm 3 m/s 753 mmHg 68%
    11:00 +19°C° 0 mm 3 m/s 754 mmHg 64%
    12:00 +19°C° 0 mm 3 m/s 754 mmHg 61%
    13:00 +19°C° 0 mm 4 m/s 754 mmHg 62%
    14:00 +19°C° 0 mm 4 m/s 753 mmHg 62%
    15:00 +19°C° 0 mm 4 m/s 753 mmHg 63%
    16:00 +18°C° 0 mm 3 m/s 754 mmHg 67%
    17:00 +18°C° 0 mm 3 m/s 754 mmHg 71%
    18:00 +17°C° 0 mm 3 m/s 754 mmHg 75%
    19:00 +16°C° 0 mm 3 m/s 754 mmHg 79%
    20:00 +13°C° 0 mm 3 m/s 755 mmHg 83%
    21:00 +11°C° 0 mm 3 m/s 755 mmHg 87%
    22:00 +10°C° 0 mm 2 m/s 755 mmHg 88%
    23:00 +9°C° 0 mm 2 m/s 755 mmHg 89%
    Arată mai mult